Location: Falniów
(50.3639°N, 19.9642°E)
Time: 18:37:04
(UTC+00:00)

SL-08 R/B - Pass Details

Date: 25 April 2026
Orbit: 667 x 728 km, 98.5° (Epoch: 13 May)

Event Time Altitude Azimuth Distance (km) Brightness Sun altitude
Rises 18:54:38 0° 18° (NNE) 3,163 6.9 -9.8°
Reaches altitude 10° 18:56:59 10° 23° (NNE) 2,237 6.1 -10.1°
Maximum altitude 19:01:49 54° 101° (E) 880 3.5 -10.7°
Drops below altitude 10° 19:06:35 10° 179° (S) 2,208 5.5 -11.3°
Sets 19:08:52 0° 183° (S) 3,117 6.3 -11.6°
